Regional Weather Roundup
Issued by NWS

Home | Current Version | Previous Version | Text Only | Print | Product List | Glossary On
Versions: 1 2 3 4 5 6 7 8 9 10 11 12 13 14 15 16 17 18 19 20 21 22 23 24 25 26 27 28 29 30 31 32 33 34 35 36 37 38 39 40 41 42 43 44 45 46 47 48 49 50
000
ASUS46 KSEW 230810
RWRWA

WASHINGTON REGIONAL WEATHER ROUNDUP
NATIONAL WEATHER SERVICE SEATTLE WA
100 AM PDT SAT AUG 23 2014

NOTE:"FAIR" INDICATES FEW OR NO CLOUDS BELOW 12,000 FEET WITH NO
SIGNIFICANT WEATHER AND/OR OBSTRUCTIONS TO VISIBILITY.

WAZ505-507>509-230900-
SEATTLE, TACOMA, EVERETT, AND VICINITY

CITY           SKY/WX    TMP DP  RH WIND       PRES   REMARKS
EVERETT        CLEAR     64  51  62 E6        30.12S
BOEING FIELD   CLEAR     66  55  67 CALM      30.10R
RENTON         CLEAR     62  59  90 SE3       30.10R
SEATAC AIRPORT CLEAR     63  55  75 N3        30.12R
JBLM-MCCHORD   CLEAR     56  54  91 S2        30.11R
PUYALLUP       NOT AVBL
JBLM-FT LEWIS  CLEAR     57  54  88 SE5       30.10S
TACOMA NARROWS CLEAR     62  53  72 CALM      30.11S
$$

WAZ001-503-506-510-514-515-230900-
NORTH INTERIOR

CITY           SKY/WX    TMP DP  RH WIND       PRES   REMARKS
BELLINGHAM     CLEAR     58  55  90 CALM      30.10R
FRIDAY HARBOR  CLEAR     49  48  97 CALM      30.10S
EASTSOUND      CLEAR     57  54  88 CALM      30.07S
PORT ANGELES   CLEAR     52  48  86 CALM      30.10R
NAS WHIDBEY    CLEAR     56  51  84 SE3       30.11R
BURLINGTON     CLEAR     55  54  94 SE3       30.11S
$$

WAZ020-022-039-040-504-511-512-230900-
SOUTHWEST INTERIOR

CITY           SKY/WX    TMP DP  RH WIND       PRES   REMARKS
SHELTON        CLEAR     55  52  89 W3        30.09S
OLYMPIA        CLEAR     54  51  90 CALM      30.11S
CHEHALIS       FAIR      55  55 100 CALM      30.10S
KELSO          CLEAR     59  54  82 CALM      30.12S
VANCOUVER      CLEAR     63  54  72 N3        30.06S
SCAPPOOSE, OR  CLEAR     64  52  64 NW3       30.06S
PORTLAND, OR   CLEAR     64  56  75 N3        30.06S
$$

WAZ021-516-517-230900-
WASHINGTON COAST

CITY           SKY/WX    TMP DP  RH WIND       PRES   REMARKS
FORKS          FOG       51  51 100 CALM      30.12F VSB 1/4
HOQUIAM        CLOUDY    56  56 100 SW8       30.13R FOG
ASTORIA, OR    CLOUDY    58  55  90 NW8       30.10F
$$

WAZ019-023-024-040-518-519-230900-
CASCADE MOUNTAINS AND COLUMBIA GORGE

CITY           SKY/WX    TMP DP  RH WIND       PRES   REMARKS
STAMPEDE PASS  NOT AVBL
TROUTDALE, OR  CLEAR     61  54  77 CALM      30.05S
THE DALLES, OR CLEAR     67  55  65 NW10G16   30.04R
$$

WAZ026-027-041>044-520-521-230900-
EAST SLOPES

CITY           SKY/WX    TMP DP  RH WIND       PRES   REMARKS
OMAK           CLEAR     60  50  69 W8        30.12R
WENATCHEE      PTCLDY    65  51  60 NW9       30.10R
ELLENSBURG     MOCLDY    63  51  65 N14       30.10S
YAKIMA         MOCLDY    62  53  72 S5        30.08S
$$

WAZ028-034-035-230900-
COLUMBIA BASIN

CITY           SKY/WX    TMP DP  RH WIND       PRES   REMARKS
EPHRATA        CLOUDY    67  49  52 N13       30.07R
MOSES LAKE       N/A     66  53  63 N10       30.07S
PASCO          CLEAR     65  53  65 N17       30.01S
HERMISTON, OR  PTCLDY    67  50  54 N7        30.01R
$$

WAZ036>038-230900-
NORTHEAST WASHINGTON

CITY           SKY/WX    TMP DP  RH WIND       PRES   REMARKS
SPOKANE GEIGER MOCLDY    61  47  59 NE7       30.09S
SPOKANE FELTS  MOCLDY    59  48  67 CALM      30.09S
FAIRCHILD AFB  MOCLDY    60  45  59 NE10      30.09S
COEURDALENE,ID CLOUDY    61  45  55 NE13      30.10S
DEER PARK      CLOUDY    61  46  57 NE10      30.10S
$$

WAZ029>033-230900-
SOUTHEAST WASHINGTON

CITY           SKY/WX    TMP DP  RH WIND       PRES   REMARKS
PULLMAN        LGT RAIN  55  50  83 CALM      30.08S
LEWISTON, ID   MOCLDY    61  57  87 SE3       30.04S
WALLA WALLA    CLEAR     60  48  64 E6        30.03R
PENDLETON, OR  CLEAR     58  47  66 SE7       30.01S
$$



USA.gov is the U.S. government's official web portal to all federal, state and local government web resources and services.